Time,TemperatureF,DewpointF,PressureIn,WindDirection,WindDirectionDegrees,WindSpeedMPH,WindSpeedGustMPH,Humidity,HourlyPrecipIn,Conditions,Clouds,dailyrainin,SoftwareType,DateUTC
2013-08-09 00:01:00,74.0,72.0,29.93,South,190,2.0,-999.0,92,-99.99,,,-99.99,,2013-08-09 04:01:00,
2013-08-09 00:12:00,74.0,72.0,29.93,South,190,2.0,-999.0,92,-99.99,,,-99.99,,2013-08-09 04:12:00,
2013-08-09 00:22:00,74.0,72.0,29.92,SSW,207,1.0,-999.0,92,-99.99,,,-99.99,,2013-08-09 04:22:00,
2013-08-09 00:33:00,74.0,72.0,29.92,SW,217,1.0,-999.0,92,-99.99,,,-99.99,,2013-08-09 04:33:00,
2013-08-09 00:53:00,74.0,72.0,29.91,South,173,1.0,-999.0,92,-99.99,,,-99.99,,2013-08-09 04:53:00,
2013-08-09 01:02:00,74.0,72.0,29.91,SW,224,0.0,-999.0,93,-99.99,,,-99.99,,2013-08-09 05:02:00,
2013-08-09 01:22:00,74.0,72.0,29.91,SSW,200,1.0,-999.0,93,-99.99,,,-99.99,,2013-08-09 05:22:00,
2013-08-09 01:43:00,74.0,72.0,29.90,SW,232,1.0,-999.0,93,-99.99,,,-99.99,,2013-08-09 05:43:00,
2013-08-09 01:52:00,74.0,72.0,29.90,SW,232,1.0,-999.0,93,-99.99,,,-99.99,,2013-08-09 05:52:00,
2013-08-09 02:01:00,74.0,72.0,29.90,South,189,1.0,-999.0,94,-99.99,,,-99.99,,2013-08-09 06:01:00,
2013-08-09 02:22:00,74.0,72.0,29.89,SSW,192,1.0,-999.0,94,-99.99,,,-99.99,,2013-08-09 06:22:00,
2013-08-09 02:32:00,74.0,72.0,29.88,SSE,166,1.0,-999.0,94,-99.99,,,-99.99,,2013-08-09 06:32:00,
2013-08-09 02:43:00,74.0,72.0,29.88,South,189,0.0,-999.0,94,-99.99,,,-99.99,,2013-08-09 06:43:00,
2013-08-09 02:52:00,74.0,72.0,29.88,South,189,0.0,-999.0,94,-99.99,,,-99.99,,2013-08-09 06:52:00,
2013-08-09 03:01:00,74.0,72.0,29.88,SSW,203,1.0,-999.0,94,-99.99,,,-99.99,,2013-08-09 07:01:00,
2013-08-09 03:22:00,74.0,72.0,29.88,SSW,207,1.0,-999.0,94,-99.99,,,-99.99,,2013-08-09 07:22:00,
2013-08-09 03:33:00,74.0,72.0,29.87,SSW,196,1.0,-999.0,94,-99.99,,,-99.99,,2013-08-09 07:33:00,
2013-08-09 03:43:00,75.0,73.0,29.87,South,184,1.0,-999.0,94,-99.99,,,-99.99,,2013-08-09 07:43:00,
2013-08-09 03:53:00,75.0,73.0,29.87,South,184,1.0,-999.0,94,-99.99,,,-99.99,,2013-08-09 07:53:00,
2013-08-09 04:02:00,75.0,73.0,29.86,SSE,159,1.0,-999.0,94,-99.99,,,-99.99,,2013-08-09 08:02:00,
2013-08-09 04:22:00,75.0,73.0,29.86,SW,216,2.0,-999.0,94,-99.99,,,-99.99,,2013-08-09 08:22:00,
2013-08-09 04:32:00,75.0,73.0,29.87,SSW,208,2.0,-999.0,94,-99.99,,,-99.99,,2013-08-09 08:32:00,
2013-08-09 04:43:00,75.0,73.0,29.86,SSW,195,2.0,-999.0,94,-99.99,,,-99.99,,2013-08-09 08:43:00,
2013-08-09 04:53:00,75.0,73.0,29.86,SSW,195,2.0,-999.0,94,-99.99,,,-99.99,,2013-08-09 08:53:00,
2013-08-09 05:02:00,75.0,73.0,29.86,SW,235,1.0,-999.0,94,-99.99,,,-99.99,,2013-08-09 09:02:00,
2013-08-09 05:22:00,75.0,73.0,29.85,SSW,192,2.0,-999.0,94,-99.99,,,-99.99,,2013-08-09 09:22:00,
2013-08-09 05:32:00,75.0,73.0,29.85,SSW,201,2.0,-999.0,94,-99.99,,,-99.99,,2013-08-09 09:32:00,
2013-08-09 05:43:00,75.0,73.0,29.85,SSW,201,2.0,-999.0,94,-99.99,,,-99.99,,2013-08-09 09:43:00,
2013-08-09 05:52:00,75.0,73.0,29.85,SSW,201,2.0,-999.0,94,-99.99,,,-99.99,,2013-08-09 09:52:00,
2013-08-09 06:01:00,75.0,73.0,29.85,South,171,2.0,-999.0,94,-99.99,,,-99.99,,2013-08-09 10:01:00,
2013-08-09 06:12:00,75.0,73.0,29.85,South,171,2.0,-999.0,94,-99.99,,,-99.99,,2013-08-09 10:12:00,
2013-08-09 06:22:00,75.0,73.0,29.84,SW,219,1.0,-999.0,94,-99.99,,,-99.99,,2013-08-09 10:22:00,
2013-08-09 06:43:00,75.0,73.0,29.85,South,177,2.0,-999.0,94,-99.99,,,-99.99,,2013-08-09 10:43:00,
2013-08-09 06:53:00,75.0,73.0,29.85,South,177,2.0,-999.0,94,-99.99,,,-99.99,,2013-08-09 10:53:00,
2013-08-09 07:02:00,76.0,74.0,29.84,SW,235,3.0,-999.0,94,-99.99,,,-99.99,,2013-08-09 11:02:00,
2013-08-09 07:11:00,76.0,74.0,29.84,SW,235,3.0,-999.0,94,-99.99,,,-99.99,,2013-08-09 11:11:00,
2013-08-09 07:22:00,76.0,74.0,29.84,SSW,200,1.0,-999.0,94,-99.99,,,-99.99,,2013-08-09 11:22:00,
2013-08-09 07:33:00,76.0,74.0,29.83,SSE,166,2.0,-999.0,94,-99.99,,,-99.99,,2013-08-09 11:33:00,
2013-08-09 07:53:00,76.0,74.0,29.83,SW,221,1.0,-999.0,94,-99.99,,,-99.99,,2013-08-09 11:53:00,
2013-08-09 08:02:00,76.0,74.0,29.83,SW,233,2.0,-999.0,93,-99.99,,,-99.99,,2013-08-09 12:02:00,
2013-08-09 08:12:00,76.0,74.0,29.83,SW,233,2.0,-999.0,93,-99.99,,,-99.99,,2013-08-09 12:12:00,
2013-08-09 08:22:00,77.0,75.0,29.82,SW,216,2.0,-999.0,93,-99.99,,,-99.99,,2013-08-09 12:22:00,
2013-08-09 08:32:00,77.0,75.0,29.81,South,171,2.0,-999.0,93,-99.99,,,-99.99,,2013-08-09 12:32:00,
2013-08-09 08:43:00,77.0,74.0,29.81,WSW,247,3.0,-999.0,92,-99.99,,,-99.99,,2013-08-09 12:43:00,
2013-08-09 08:52:00,77.0,74.0,29.81,WSW,247,3.0,-999.0,92,-99.99,,,-99.99,,2013-08-09 12:52:00,
2013-08-09 09:01:00,78.0,75.0,29.80,SW,225,2.0,-999.0,91,-99.99,,,-99.99,,2013-08-09 13:01:00,
2013-08-09 09:12:00,78.0,75.0,29.80,SW,225,2.0,-999.0,91,-99.99,,,-99.99,,2013-08-09 13:12:00,
2013-08-09 09:23:00,78.0,75.0,29.80,West,268,3.0,-999.0,90,-99.99,,,-99.99,,2013-08-09 13:23:00,
2013-08-09 09:43:00,79.0,75.0,29.79,South,180,4.0,-999.0,89,-99.99,,,-99.99,,2013-08-09 13:43:00,
2013-08-09 09:52:00,79.0,75.0,29.79,South,180,4.0,-999.0,89,-99.99,,,-99.99,,2013-08-09 13:52:00,
2013-08-09 10:02:00,79.0,75.0,29.79,South,180,4.0,-999.0,89,-99.99,,,-99.99,,2013-08-09 14:02:00,
2013-08-09 10:11:00,80.0,76.0,29.79,SSW,201,2.0,-999.0,87,-99.99,,,-99.99,,2013-08-09 14:11:00,
2013-08-09 10:33:00,80.0,75.0,29.79,SE,137,3.0,-999.0,86,-99.99,,,-99.99,,2013-08-09 14:33:00,
2013-08-09 10:43:00,80.0,75.0,29.79,SE,137,3.0,-999.0,86,-99.99,,,-99.99,,2013-08-09 14:43:00,
2013-08-09 10:53:00,81.0,76.0,29.78,SSW,208,3.0,-999.0,86,-99.99,,,-99.99,,2013-08-09 14:53:00,
2013-08-09 11:02:00,82.0,77.0,29.78,South,186,4.0,-999.0,84,-99.99,,,-99.99,,2013-08-09 15:02:00,
2013-08-09 11:12:00,82.0,77.0,29.78,South,186,4.0,-999.0,84,-99.99,,,-99.99,,2013-08-09 15:12:00,
2013-08-09 11:33:00,83.0,77.0,29.78,WSW,252,5.0,-999.0,81,-99.99,,,-99.99,,2013-08-09 15:33:00,
2013-08-09 11:44:00,84.0,76.0,29.78,SSW,213,4.0,-999.0,78,-99.99,,,-99.99,,2013-08-09 15:44:00,
2013-08-09 11:53:00,84.0,77.0,29.77,SW,230,3.0,-999.0,79,-99.99,,,-99.99,,2013-08-09 15:53:00,
2013-08-09 12:02:00,85.0,77.0,29.77,SW,226,4.0,-999.0,76,-99.99,,,-99.99,,2013-08-09 16:02:00,
2013-08-09 12:11:00,85.0,77.0,29.77,SW,226,4.0,-999.0,76,-99.99,,,-99.99,,2013-08-09 16:11:00,
2013-08-09 12:22:00,85.0,77.0,29.77,WSW,243,4.0,-999.0,78,-99.99,,,-99.99,,2013-08-09 16:22:00,
2013-08-09 12:43:00,86.0,78.0,29.76,SSW,194,3.0,-999.0,78,-99.99,,,-99.99,,2013-08-09 16:43:00,
2013-08-09 12:53:00,86.0,77.0,29.76,South,175,4.0,-999.0,75,-99.99,,,-99.99,,2013-08-09 16:53:00,
2013-08-09 13:02:00,86.0,77.0,29.76,South,175,4.0,-999.0,75,-99.99,,,-99.99,,2013-08-09 17:02:00,
2013-08-09 13:11:00,85.0,77.0,29.76,NW,304,3.0,-999.0,76,-99.99,,,-99.99,,2013-08-09 17:11:00,
2013-08-09 13:22:00,83.0,78.0,29.76,NW,323,1.0,-999.0,84,-99.99,,,-99.99,,2013-08-09 17:22:00,
2013-08-09 13:33:00,83.0,78.0,29.76,NW,323,1.0,-999.0,84,-99.99,,,-99.99,,2013-08-09 17:33:00,
2013-08-09 13:43:00,82.0,78.0,29.75,SW,224,0.0,-999.0,87,-99.99,,,-99.99,,2013-08-09 17:43:00,
2013-08-09 13:52:00,83.0,79.0,29.75,SW,220,2.0,-999.0,88,-99.99,,,-99.99,,2013-08-09 17:52:00,
2013-08-09 14:01:00,83.0,79.0,29.75,SW,220,2.0,-999.0,88,-99.99,,,-99.99,,2013-08-09 18:01:00,
2013-08-09 14:11:00,84.0,78.0,29.74,WSW,246,2.0,-999.0,82,-99.99,,,-99.99,,2013-08-09 18:11:00,
2013-08-09 14:22:00,84.0,77.0,29.74,SSW,197,3.0,-999.0,80,-99.99,,,-99.99,,2013-08-09 18:22:00,
2013-08-09 14:32:00,84.0,77.0,29.74,SSW,197,3.0,-999.0,80,-99.99,,,-99.99,,2013-08-09 18:32:00,
2013-08-09 14:43:00,86.0,78.0,29.74,ENE,59,3.0,-999.0,77,-99.99,,,-99.99,,2013-08-09 18:43:00,
2013-08-09 14:53:00,87.0,77.0,29.73,SSW,194,4.0,-999.0,72,-99.99,,,-99.99,,2013-08-09 18:53:00,
2013-08-09 15:02:00,86.0,75.0,29.73,SSW,207,3.0,-999.0,71,-99.99,,,-99.99,,2013-08-09 19:02:00,
2013-08-09 15:11:00,86.0,75.0,29.73,SSW,207,3.0,-999.0,71,-99.99,,,-99.99,,2013-08-09 19:11:00,
2013-08-09 15:32:00,87.0,77.0,29.73,North,355,2.0,-999.0,72,-99.99,,,-99.99,,2013-08-09 19:32:00,
2013-08-09 15:43:00,87.0,76.0,29.72,ENE,59,2.0,-999.0,71,-99.99,,,-99.99,,2013-08-09 19:43:00,
2013-08-09 15:52:00,86.0,77.0,29.72,SW,228,2.0,-999.0,74,-99.99,,,-99.99,,2013-08-09 19:52:00,
2013-08-09 16:02:00,86.0,77.0,29.72,SW,228,2.0,-999.0,74,-99.99,,,-99.99,,2013-08-09 20:02:00,
2013-08-09 16:11:00,85.0,77.0,29.72,West,262,1.0,-999.0,76,-99.99,,,-99.99,,2013-08-09 20:11:00,
2013-08-09 16:22:00,84.0,76.0,29.72,WNW,298,0.0,-999.0,78,-99.99,,,-99.99,,2013-08-09 20:22:00,
2013-08-09 16:43:00,84.0,77.0,29.73,WSW,246,0.0,-999.0,80,-99.99,,,-99.99,,2013-08-09 20:43:00,
2013-08-09 16:52:00,83.0,77.0,29.73,North,355,0.0,-999.0,81,-99.99,,,-99.99,,2013-08-09 20:52:00,
2013-08-09 17:01:00,83.0,77.0,29.73,North,355,0.0,-999.0,81,-99.99,,,-99.99,,2013-08-09 21:01:00,
2013-08-09 17:12:00,82.0,77.0,29.73,NE,45,0.0,-999.0,86,-99.99,,,-99.99,,2013-08-09 21:12:00,
2013-08-09 17:22:00,81.0,77.0,29.73,SSW,201,1.0,-999.0,88,-99.99,,,-99.99,,2013-08-09 21:22:00,
2013-08-09 17:33:00,81.0,77.0,29.73,SSW,201,1.0,-999.0,88,-99.99,,,-99.99,,2013-08-09 21:33:00,
2013-08-09 17:43:00,79.0,75.0,29.73,WNW,293,1.0,-999.0,88,-99.99,,,-99.99,,2013-08-09 21:43:00,
2013-08-09 17:52:00,79.0,76.0,29.72,SW,217,0.0,-999.0,90,-99.99,,,-99.99,,2013-08-09 21:52:00,
2013-08-09 18:02:00,80.0,76.0,29.72,South,186,0.0,-999.0,89,-99.99,,,-99.99,,2013-08-09 22:02:00,
2013-08-09 18:11:00,80.0,76.0,29.72,South,186,0.0,-999.0,89,-99.99,,,-99.99,,2013-08-09 22:11:00,
2013-08-09 18:22:00,79.0,76.0,29.72,SSW,197,0.0,-999.0,90,-99.99,,,-99.99,,2013-08-09 22:22:00,
2013-08-09 18:42:00,80.0,77.0,29.73,SSW,197,0.0,-999.0,90,-99.99,,,-99.99,,2013-08-09 22:42:00,
2013-08-09 18:52:00,80.0,77.0,29.73,SSW,197,0.0,-999.0,90,-99.99,,,-99.99,,2013-08-09 22:52:00,
2013-08-09 19:02:00,80.0,77.0,29.73,SSW,197,0.0,-999.0,90,-99.99,,,-99.99,,2013-08-09 23:02:00,
2013-08-09 19:11:00,79.0,76.0,29.72,SSW,197,0.0,-999.0,90,-99.99,,,-99.99,,2013-08-09 23:11:00,
2013-08-09 19:22:00,79.0,76.0,29.72,SSW,197,0.0,-999.0,91,-99.99,,,-99.99,,2013-08-09 23:22:00,
2013-08-09 19:32:00,79.0,76.0,29.72,SSW,197,0.0,-999.0,91,-99.99,,,-99.99,,2013-08-09 23:32:00,
2013-08-09 19:43:00,79.0,76.0,29.73,SSW,197,0.0,-999.0,92,-99.99,,,-99.99,,2013-08-09 23:43:00,
2013-08-09 19:52:00,79.0,76.0,29.74,SSW,196,0.0,-999.0,92,-99.99,,,-99.99,,2013-08-09 23:52:00,
2013-08-09 20:01:00,79.0,76.0,29.74,SSW,196,0.0,-999.0,92,-99.99,,,-99.99,,2013-08-10 00:01:00,
2013-08-09 20:22:00,79.0,76.0,29.74,SSW,196,0.0,-999.0,92,-99.99,,,-99.99,,2013-08-10 00:22:00,
2013-08-09 20:33:00,79.0,76.0,29.74,SSW,196,0.0,-999.0,92,-99.99,,,-99.99,,2013-08-10 00:33:00,
2013-08-09 20:43:00,78.0,75.0,29.73,SSW,196,0.0,-999.0,92,-99.99,,,-99.99,,2013-08-10 00:43:00,
2013-08-09 20:53:00,78.0,75.0,29.73,SSW,196,0.0,-999.0,92,-99.99,,,-99.99,,2013-08-10 00:53:00,
2013-08-09 21:02:00,78.0,76.0,29.73,SSW,196,0.0,-999.0,93,-99.99,,,-99.99,,2013-08-10 01:02:00,
2013-08-09 21:11:00,78.0,76.0,29.73,SSW,196,0.0,-999.0,93,-99.99,,,-99.99,,2013-08-10 01:11:00,
2013-08-09 21:22:00,78.0,76.0,29.73,SSW,196,0.0,-999.0,93,-99.99,,,-99.99,,2013-08-10 01:22:00,
2013-08-09 21:32:00,77.0,75.0,29.74,SSW,196,0.0,-999.0,93,-99.99,,,-99.99,,2013-08-10 01:32:00,
2013-08-09 21:42:00,77.0,75.0,29.74,SSW,196,0.0,-999.0,93,-99.99,,,-99.99,,2013-08-10 01:42:00,
2013-08-09 21:52:00,77.0,75.0,29.74,SSW,196,0.0,-999.0,93,-99.99,,,-99.99,,2013-08-10 01:52:00,
2013-08-09 22:03:00,77.0,75.0,29.74,SSW,196,0.0,-999.0,93,-99.99,,,-99.99,,2013-08-10 02:03:00,
2013-08-09 22:11:00,77.0,75.0,29.74,SSW,196,0.0,-999.0,93,-99.99,,,-99.99,,2013-08-10 02:11:00,
2013-08-09 22:32:00,77.0,75.0,29.77,South,180,0.0,-999.0,95,-99.99,,,-99.99,,2013-08-10 02:32:00,
2013-08-09 22:42:00,77.0,75.0,29.77,South,180,0.0,-999.0,95,-99.99,,,-99.99,,2013-08-10 02:42:00,
2013-08-09 22:52:00,77.0,75.0,29.77,South,180,0.0,-999.0,95,-99.99,,,-99.99,,2013-08-10 02:52:00,
2013-08-09 23:01:00,77.0,75.0,29.77,South,180,0.0,-999.0,95,-99.99,,,-99.99,,2013-08-10 03:01:00,
2013-08-09 23:11:00,77.0,75.0,29.77,South,180,0.0,-999.0,95,-99.99,,,-99.99,,2013-08-10 03:11:00,
2013-08-09 23:22:00,76.0,74.0,29.76,SSW,210,0.0,-999.0,95,-99.99,,,-99.99,,2013-08-10 03:22:00,
2013-08-09 23:32:00,76.0,74.0,29.76,SSW,210,0.0,-999.0,95,-99.99,,,-99.99,,2013-08-10 03:32:00,
2013-08-09 23:42:00,76.0,74.0,29.76,SSW,210,0.0,-999.0,95,-99.99,,,-99.99,,2013-08-10 03:42:00,
2013-08-09 23:52:00,76.0,74.0,29.76,SW,226,0.0,-999.0,95,-99.99,,,-99.99,,2013-08-10 03:52:00,